Location: Zürich
(47.3769°N, 8.5417°E)
Time: 10:56:04
(UTC+02:00)

ISS - Pass Details

Date: 19 May 2021
Orbit: 417 x 422 km, 51.6° (Epoch: 13 June)

Event Time Altitude Azimuth Distance (km) Brightness Sun altitude
Rises 00:29:12 0° 286° (WNW) 2,367 0.5 -21.8°
Reaches altitude 10° 00:31:24 10° 294° (WNW) 1,503 -0.5 -21.9°
Maximum altitude 00:34:36 39° 5° (N) 645 -2.4 -22.0°
Enters shadow 00:36:27 21° 64° (ENE) 1,020 -1.7 -22.1°
